Location: ??????????
(41.2581°N, 22.8006°E)
Time: 16:44:35
(UTC+00:00)

Cosmos 1825 Rocket - Pass Details

Date: 13 December 2025
Orbit: 597 x 624 km, 82.5° (Epoch: 22 January)

Event Time Altitude Azimuth Distance (km) Brightness Sun altitude
Rises 16:13:28 0° 348° (NNW) 2,873 6.9 -13.3°
Reaches altitude 10° 16:15:42 10° 346° (NNW) 1,960 6.1 -13.7°
Maximum altitude 16:19:59 63° 265° (W) 675 4.0 -14.5°
Drops below altitude 10° 16:24:12 10° 185° (S) 1,932 6.4 -15.2°
Sets 16:26:24 0° 182° (S) 2,827 7.2 -15.6°
